EA3GKP-1 Weather Reports


Display with metric or nautical units.
time (UTC)temp
F
wind
direction
speed
MPH
gust
MPH
rain 1hr
in
rain 24hr
in
rain mn
in
humidity
%
barometer
mb
20260506094314 67 4 0.0 0.0 0.00 0.00 0.00 7 1012.0
20260506093336 65 3 0.0 0.0 0.00 0.00 0.00 7 1012.0
20260506092400 64 6 0.0 0.0 0.00 0.00 0.00 7 1012.0
20260506091420 64 4 0.0 0.0 0.00 0.00 0.00 7 1012.0
20260506090442 64 3 0.0 0.0 0.00 0.00 0.00 7 1012.0
20260506085506 64 4 0.0 0.0 0.00 0.00 0.00 7 1012.0
20260506084527 64 5 0.0 0.0 0.00 0.00 0.00 7 1012.0
20260506083549 66 4 0.0 0.0 0.00 0.00 0.00 7 1012.0
20260506082611 64 6 0.0 0.0 0.00 0.00 0.00 7 1012.0
20260506081633 65 7 0.0 0.0 0.00 0.00 0.00 7 1012.0
20260506072857 63 7 0.0 0.0 0.00 0.00 0.00 7 1012.0
20260506072824 63 7 0.0 0.0 0.00 0.00 0.00 7 1012.0
20260506071846 62 7 0.0 0.0 0.00 0.00 0.00 7 1012.0
20260506062103 61 8 0.0 0.0 0.00 0.00 0.00 7 1011.0
20260506061123 61 9 0.0 0.0 0.00 0.00 0.00 8 1011.0
20260506060143 60 10 0.0 0.0 0.00 0.00 0.00 8 1011.0
20260506051334 56 12 0.0 0.0 0.00 0.00 0.00 10 1011.0
20260506050356 56 12 0.0 0.0 0.00 0.00 0.00 10 1011.0
20260506044440 56 12 0.0 0.0 0.00 0.00 0.00 10 1011.0
20260506043502 56 13 0.0 0.0 0.00 0.00 0.00 10 1011.0
20260506042524 57 9 0.0 0.0 0.00 0.00 0.00 10 1011.0
20260506041547 57 11 0.0 0.0 0.00 0.00 0.00 10 1011.0
20260506040609 57 12 0.0 0.0 0.00 0.00 0.00 10 1011.0
20260506035631 56 12 0.0 0.0 0.00 0.00 0.00 10 1011.0
20260506034653 56 10 0.0 0.0 0.00 0.00 0.00 10 1010.0
20260506033715 56 13 0.0 0.0 0.00 0.00 0.00 10 1010.0
20260506032739 57 12 0.0 0.0 0.00 0.00 0.00 10 1010.0
20260506031759 57 12 0.0 0.0 0.00 0.00 0.00 10 1010.0
20260506030822 57 10 0.0 0.0 0.00 0.00 0.00 10 1010.0
20260506025844 58 12 0.0 0.0 0.00 0.00 0.00 10 1010.0
20260506024907 57 13 0.0 0.0 0.00 0.00 0.00 10 1010.0
20260506023928 57 13 0.0 0.0 0.00 0.00 0.00 10 1010.0
20260506022950 57 14 0.0 0.0 0.00 0.00 0.00 12 1010.0
20260506022012 57 13 0.0 0.0 0.00 0.00 0.00 10 1010.0
20260506021034 58 14 0.0 0.0 0.00 0.00 0.00 12 1010.0
20260506020057 58 13 0.0 0.0 0.00 0.00 0.00 10 1010.0
20260506015119 58 13 0.0 0.0 0.00 0.00 0.00 10 1010.0
20260506014141 57 11 0.0 0.0 0.00 0.00 0.00 10 1010.0
20260506013203 58 12 0.0 0.0 0.00 0.00 0.00 10 1010.0
20260506012225 57 14 0.0 0.0 0.00 0.00 0.00 12 1010.0
20260506011251 58 13 0.0 0.0 0.00 0.00 0.00 10 1010.0
20260506010309 58 14 0.0 0.0 0.00 0.00 0.00 10 1010.0
20260506005332 58 13 0.0 0.0 0.00 0.00 0.00 10 1010.0
20260506004354 59 12 0.0 0.0 0.00 0.00 0.00 10 1010.0
20260506003416 59 12 0.0 0.0 0.00 0.00 0.00 10 1010.0
20260506002438 60 10 0.0 0.0 0.00 0.00 0.00 8 1010.0
20260506001500 60 11 0.0 0.0 0.00 0.00 0.00 8 1010.0
20260506000522 60 11 0.0 0.0 0.00 0.00 0.00 8 1010.0
20260505235544 61 8 0.0 0.0 0.00 0.00 0.00 8 1010.0
20260505234607 61 10 0.0 0.0 0.00 0.00 0.00 8 1010.0
20260505233629 61 9 0.0 0.0 0.00 0.00 0.00 8 1010.0
20260505232651 61 9 0.0 0.0 0.00 0.00 0.00 8 1010.0
20260505231713 61 7 0.0 0.0 0.00 0.00 0.00 8 1010.0
20260505230735 61 9 0.0 0.0 0.00 0.00 0.00 8 1010.0
20260505225759 62 9 0.0 0.0 0.00 0.00 0.00 8 1010.0
20260505224819 62 7 0.0 0.0 0.00 0.00 0.00 8 1010.0
20260505223842 62 6 0.0 0.0 0.00 0.00 0.00 8 1010.0
20260505221926 62 8 0.0 0.0 0.00 0.00 0.00 7 1011.0
20260505220951 62 7 0.0 0.0 0.00 0.00 0.00 7 1011.0
20260505220010 62 6 0.0 0.0 0.00 0.00 0.00 7 1011.0
20260505215032 63 6 0.0 0.0 0.00 0.00 0.00 7 1011.0
20260505214054 63 5 0.0 0.0 0.00 0.00 0.00 7 1011.0
20260505213116 63 8 0.0 0.0 0.00 0.00 0.00 7 1011.0
20260505212139 63 8 0.0 0.0 0.00 0.00 0.00 7 1011.0
20260505210225 63 5 0.0 0.0 0.00 0.00 0.00 7 1010.0
20260505205248 63 5 0.0 0.0 0.00 0.00 0.00 7 1010.0
20260505204307 62 6 0.0 0.0 0.00 0.00 0.00 7 1010.0
20260505203329 62 6 0.0 0.0 0.00 0.00 0.00 7 1010.0
20260505202351 62 7 0.0 0.0 0.00 0.00 0.00 8 1010.0
20260505201414 62 7 0.0 0.0 0.00 0.00 0.00 8 1010.0
20260505200436 62 9 0.0 0.0 0.00 0.00 0.00 8 1010.0
20260505195458 62 9 0.0 0.0 0.00 0.00 0.00 8 1010.0
20260505194520 63 6 0.0 0.0 0.00 0.00 0.00 7 1010.0
20260505193542 63 5 0.0 0.0 0.00 0.00 0.00 7 1010.0
20260505192604 64 5 0.0 0.0 0.00 0.00 0.00 7 1009.0
20260505191627 64 6 0.0 0.0 0.00 0.00 0.00 8 1009.0
20260505190649 65 8 0.0 0.0 0.00 0.00 0.00 8 1009.0
20260505185711 65 6 0.0 0.0 0.00 0.00 0.00 7 1009.0
20260505184735 65 6 0.0 0.0 0.00 0.00 0.00 7 1009.0
20260505183801 65 4 0.0 0.0 0.00 0.00 0.00 7 1009.0
20260505182817 65 4 0.0 0.0 0.00 0.00 0.00 7 1009.0
20260505181839 65 4 0.0 0.0 0.00 0.00 0.00 7 1009.0
20260505180901 65 7 0.0 0.0 0.00 0.00 0.00 7 1009.0
20260505175925 65 4 0.0 0.0 0.00 0.00 0.00 7 1009.0
20260505174946 65 5 0.0 0.0 0.00 0.00 0.00 7 1009.0
20260505174008 65 6 0.0 0.0 0.00 0.00 0.00 7 1009.0
20260505173030 65 4 0.0 0.0 0.00 0.00 0.00 7 1010.0
20260505172052 66 4 0.0 0.0 0.00 0.00 0.00 7 1009.0
20260505171114 66 4 0.0 0.0 0.00 0.00 0.00 7 1009.0
20260505170136 66 6 0.0 0.0 0.00 0.00 0.00 8 1009.0
20260505165200 66 6 0.0 0.0 0.00 0.00 0.00 8 1009.0
20260505164221 66 5 0.0 0.0 0.00 0.00 0.00 8 1009.0
20260505163244 67 5 0.0 0.0 0.00 0.00 0.00 8 1009.0
20260505162307 66 6 0.0 0.0 0.00 0.00 0.00 8 1009.0
20260505161329 67 5 0.0 0.0 0.00 0.00 0.00 8 1009.0
20260505160349 67 7 0.0 0.0 0.00 0.00 0.00 8 1009.0
20260505152520 66 7 0.0 0.0 0.00 0.00 0.00 8 1009.0
20260505151540 66 7 0.0 0.0 0.00 0.00 0.00 8 1009.0
20260505150602 67 4 0.0 0.0 0.00 0.00 0.00 8 1009.0
20260505124134 68 5 0.0 0.0 0.00 0.00 0.00 8 1010.0
20260505123156 68 5 0.0 0.0 0.00 0.00 0.00 8 1010.0
20260505122218 69 4 0.0 0.0 0.00 0.00 0.00 8 1010.0
20260505121242 70 4 0.0 0.0 0.00 0.00 0.00 8 1010.0
20260505120303 70 7 0.0 0.0 0.00 0.00 0.00 8 1010.0
20260505115325 69 6 0.0 0.0 0.00 0.00 0.00 8 1010.0
20260505114347 69 6 0.0 0.0 0.00 0.00 0.00 8 1010.0
20260505113409 70 7 0.0 0.0 0.00 0.00 0.00 8 1010.0
20260505112431 69 6 0.0 0.0 0.00 0.00 0.00 8 1010.0
20260505110515 70 7 0.0 0.0 0.00 0.00 0.00 8 1011.0
20260505101708 65 8 0.0 0.0 0.00 0.00 0.00 8 1011.0
20260505100732 64 8 0.0 0.0 0.00 0.00 0.00 8 1011.0
20260505095750 64 10 0.0 0.0 0.00 0.00 0.00 8 1011.0